Location: Bazugues
(43.4465°N, 0.3432°E)
Time: 10:04:51
(UTC+00:00)

Meteor 1-23 Rocket - Pass Details

Date: 12 January 2026
Orbit: 840 x 883 km, 81.3° (Epoch: 11 February)

Event Time Altitude Azimuth Distance (km) Brightness Sun altitude
Rises 17:42:05 0° 171° (S) 3,442 7.5 -10.3°
Reaches altitude 10° 17:44:35 10° 166° (SSE) 2,503 6.7 -10.8°
Maximum altitude 17:50:01 48° 94° (E) 1,114 4.5 -11.7°
Drops below altitude 10° 17:55:25 10° 21° (NNE) 2,492 6.3 -12.6°
Sets 17:57:54 0° 16° (NNE) 3,426 7.0 -13.0°
